CAPE
2169 2127 2069 2024 2008 2093 2084 2037 1981 1970 1819 1585 1226 877 847 1077 1026 841 855 629 761 868 834 789 751 780 813 784 723 619 524 473 457 0 0 0 0 0 0 0 162 291 180 0 0 0 0 0 0 0 0 0 0 0 0 0 0 0 0 0 0 0 0
2159 2099 2072 2035 1985 1920 1985 2010 2024 1981 1860 1711 1508 1164 879 1280 1207 1058 1016 822 829 962 920 836 828 817 814 779 766 742 662 601 562 383 0 0 0 0 0 0 0 70 0 0 0 0 0 0 0 0 0 0 0 0 0 0 0 0 0 0 0 0 0
2124 2050 1987 1949 1896 1877 1868 1895 2000 2003 1905 1770 1645 1300 840 1395 1435 1295 1166 1138 906 983 992 912 885 910 888 844 799 806 771 718 669 649 400 0 0 0 0 0 0 0 0 0 0 0 0 0 0 0 0 0 0 0 0 0 0 0 0 0 0 0 0
2064 2010 1910 1852 1891 1900 1884 1834 1867 1920 1884 1809 1615 1193 898 1348 1548 1422 1316 1248 1123 956 954 970 914 951 999 932 900 899 894 882 840 782 691 433 66 0 0 0 0 0 0 0 0 0 0 0 0 0 0 0 0 0 0 0 0 0 0 0 0 0 0
1977 1961 1904 1832 1813 1856 1877 1838 1777 1866 1860 1746 1426 1087 972 1241 1581 1556 1354 1317 1295 1084 932 869 900 869 942 1077 1068 1024 1010 980 942 837 731 665 596 470 157 0 0 0 0 0 0 0 0 0 0 0 0 0 0 0 0 0 0 0 0 0 0 0 0
1901 1898 1865 1802 1679 1772 1827 1847 1750 1708 1613 1524 1302 1097 1160 1266 1473 1626 1560 1423 1414 1348 1133 992 916 860 822 867 1040 1104 1096 1033 940 861 789 715 652 545 479 444 451 0 0 0 0 0 0 0 0 0 0 0 0 0 0 0 0 0 0 0 0 0 0
1883 1886 1847 1752 1684 1706 1755 1738 1690 1645 1611 1580 1446 1244 1184 1443 1467 1538 1649 1625 1502 1433 1362 1249 1150 1094 1076 1045 976 982 1039 1041 958 874 803 732 671 608 506 507 470 0 0 0 0 0 0 0 0 0 0 0 0 0 0 0 0 0 0 0 0 0 0
1873 1885 1860 1750 1637 1666 1715 1704 1680 1627 1596 1548 1494 1364 1233 1519 1630 1589 1657 1727 1728 1631 1503 1360 1299 1254 1243 1247 1240 1198 1092 1040 976 906 841 784 708 617 562 563 548 415 0 0 0 0 0 0 0 0 0 0 0 0 0 0 0 0 0 0 0 0 0
1850 1861 1838 1718 1566 1591 1671 1783 1723 1643 1540 1548 1491 1417 1361 1491 1708 1737 1742 1792 1810 1783 1737 1652 1517 1397 1324 1329 1278 1133 1024 941 925 901 894 855 794 684 597 584 558 520 258 0 0 0 0 0 0 99 0 0 0 0 0 0 0 0 0 0 0 0 0
1794 1790 1789 1736 1621 1568 1584 1706 1755 1682 1630 1558 1495 1421 1372 1472 1691 1784 1787 1801 1821 1819 1786 1722 1649 1612 1576 1495 1327 1198 1136 1064 920 882 898 888 832 730 630 588 601 577 498 248 0 0 0 0 342 191 24 0 0 0 0 0 0 0 0 0 0 0 0
1840 1799 1791 1751 1643 1542 1517 1595 1742 1720 1594 1534 1449 1447 1400 1440 1633 1794 1826 1822 1850 1824 1800 1784 1776 1774 1701 1571 1426 1262 1149 1081 1011 887 820 814 807 740 664 620 697 654 564 504 276 294 335 362 342 375 217 0 0 0 0 0 0 0 0 0 0 0 0
1962 1871 1810 1784 1688 1555 1519 1576 1652 1741 1744 1610 1532 1511 1474 1406 1585 1767 1831 1843 1870 1889 1875 1880 1870 1819 1714 1587 1440 1306 1254 1210 1132 1037 947 918 929 852 767 766 781 718 622 581 514 412 388 408 429 442 452 323 0 0 0 0 0 0 0 0 0 0 0
2084 1994 1867 1777 1697 1607 1596 1565 1676 1662 1712 1727 1640 1557 1527 1412 1549 1734 1861 1872 1879 1901 1922 1906 1865 1791 1692 1595 1488 1437 1401 1304 1232 1128 1043 970 953 929 909 906 842 758 713 663 602 540 449 465 519 428 372 122 0 0 297 220 0 0 0 0 0 0 0
2161 2104 1978 1772 1678 1635 1606 1580 1682 1750 1723 1714 1686 1609 1573 1476 1498 1644 1812 1889 1885 1890 1887 1865 1821 1758 1705 1666 1583 1482 1406 1333 1250 1186 1134 1083 1045 1066 1074 1021 960 905 853 737 657 616 557 574 549 473 395 256 235 371 350 314 97 0 0 0 0 0 0
2171 2179 2070 1816 1697 1711 1665 1598 1658 1763 1767 1784 1752 1700 1645 1556 1535 1622 1721 1796 1850 1875 1876 1868 1810 1743 1679 1615 1568 1480 1429 1364 1346 1337 1253 1201 1136 1117 1119 1110 1084 1035 885 743 695 695 700 634 545 512 410 422 468 448 376 312 46 0 0 0 0 0 0
2152 2160 2148 2017 1782 1758 1756 1734 1648 1753 1833 1837 1829 1801 1732 1654 1619 1670 1721 1780 1825 1855 1849 1844 1828 1751 1668 1606 1558 1509 1460 1464 1496 1452 1349 1249 1174 1096 1072 1097 1122 1053 914 780 685 700 698 619 568 534 524 542 543 415 0 0 0 0 0 0 0 0 0
2120 2116 2117 2102 1947 1739 1849 1835 1760 1789 1830 1875 1879 1887 1845 1758 1711 1755 1816 1863 1852 1858 1879 1847 1806 1747 1692 1639 1580 1556 1560 1603 1592 1484 1332 1229 1133 1084 1080 1102 1102 1053 940 839 804 798 730 666 685 697 614 549 441 0 0 0 0 0 0 0 0 0 0
2123 2067 2077 2100 2048 1819 1878 1895 1854 1794 1852 1890 1937 1946 1929 1881 1836 1824 1879 1928 1923 1904 1891 1878 1846 1818 1783 1723 1647 1598 1618 1616 1554 1437 1336 1221 1140 1096 1108 1105 1069 1003 937 889 807 671 658 600 598 562 456 349 0 0 0 0 0 0 0 0 0 0 0
2152 2089 2048 2057 2074 1975 1833 1933 1914 1885 1825 1920 1992 2032 2032 2012 2013 1954 1918 1946 1968 1980 1968 1951 1925 1887 1810 1718 1667 1645 1632 1586 1492 1434 1358 1230 1143 1114 1103 1084 1018 964 908 804 646 537 455 481 438 426 292 131 0 0 0 0 0 0 0 0 0 0 0
2202 2128 2060 2036 2034 1998 1867 1956 1958 1941 1928 1978 2026 2086 2152 2162 2145 2124 2063 2005 1994 1999 2015 2036 2033 1963 1776 1694 1691 1704 1680 1603 1516 1458 1378 1281 1211 1172 1142 1076 944 880 688 510 424 328 103 348 104 388 346 241 0 0 0 0 0 0 0 0 0 0 0
2269 2174 2116 2067 2010 1932 1861 1937 2008 2019 1990 1995 2079 2176 2268 2321 2288 2234 2212 2168 2126 2088 2078 2067 2068 2028 1907 1826 1828 1816 1739 1613 1528 1469 1379 1309 1235 1191 1121 963 772 646 597 526 0 0 0 0 0 0 0 3 0 0 0 0 0 0 0 0 0 0 0
2205 2180 2149 2110 2020 1932 1872 1988 2090 2107 2103 2069 2146 2229 2304 2352 2379 2376 2344 2327 2294 2243 2191 2143 2096 2046 1975 1914 1875 1814 1745 1639 1532 1484 1436 1370 1266 1119 934 783 687 655 629 520 0 0 0 0 0 0 0 0 0 0 0 0 0 0 0 0 0 0 0
2212 2161 2148 2140 2104 2126 2080 2086 2161 2196 2215 2182 2180 2262 2302 2346 2406 2428 2434 2447 2448 2423 2379 2330 2238 2138 1986 1893 1853 1789 1720 1634 1540 1513 1493 1388 1208 1029 916 812 731 658 562 438 0 0 0 0 0 0 0 0 0 0 0 0 0 0 0 0 0 0 0
2202 2161 2146 2169 2197 2225 2254 2204 2202 2257 2263 2280 2229 2242 2317 2384 2403 2446 2452 2442 2462 2479 2495 2467 2347 2214 1983 1950 1833 1757 1710 1650 1590 1488 1340 1242 1168 1038 912 800 692 603 482 248 0 0 0 0 0 0 0 0 0 0 0 0 0 0 0 0 0 0 0
2248 2236 2200 2219 2262 2315 2328 2316 2293 2283 2305 2338 2321 2283 2307 2370 2402 2432 2471 2459 2433 2426 2412 2404 2339 2181 2006 1998 1923 1802 1699 1642 1568 1468 1388 1295 1177 1011 860 728 643 559 375 0 0 0 0 0 0 0 0 0 0 0 0 0 0 0 0 0 0 0 0
2006 2256 2309 2280 2326 2375 2361 2410 2361 2256 2248 2318 2345 2214 2348 2374 2431 2444 2460 2460 2451 2438 2425 2365 2274 2150 2024 2021 1965 1851 1741 1661 1571 1495 1403 1271 1095 921 788 687 634 552 350 0 0 0 0 0 0 0 0 0 0 0 0 0 0 0 0 0 0 0 0
2154 2320 2377 2348 2285 2297 2373 2391 2354 2232 2198 2306 2279 2285 2353 2406 2512 2518 2481 2495 2475 2436 2434 2405 2311 2199 2088 2050 1998 1898 1829 1707 1518 1397 1258 1094 959 830 755 675 609 510 367 0 0 0 0 0 0 0 0 0 0 0 0 0 0 0 0 0 0 0 0
1558 1945 2220 2386 2316 2332 2404 2446 2425 2312 2249 2259 2304 2391 2166 2323 2478 2530 2564 2535 2485 2495 2493 2386 2318 2264 2221 2104 1974 1904 1846 1655 1430 1263 1151 1031 902 767 688 615 547 447 252 0 0 0 0 0 0 0 0 0 0 0 0 0 0 0 0 0 0 0 0
350 934 1404 1931 2168 2366 2436 2391 2372 2357 2171 2111 2298 2026 1908 2068 2154 2207 2298 2448 2482 2467 2412 2356 2283 2234 2182 2096 1961 1905 1810 1645 1456 1272 1146 1040 904 737 626 554 486 399 303 0 0 0 0 0 0 0 0 0 0 0 0 0 0 0 0 0 0 0 0
360 208 460 972 1402 1914 2103 2083 1971 2102 2040 2062 1914 1942 1972 1909 1796 1942 2170 2146 2190 2290 2348 2276 2222 2143 2096 2044 1884 1846 1764 1617 1453 1271 1135 1014 864 710 591 532 474 382 66 0 0 0 0 0 0 0 0 0 0 0 0 0 0 0 0 0 0 0 0
63 59 10 485 694 1336 2023 1676 1456 1538 1433 1666 1835 1816 1923 1779 1550 1538 1666 1783 1916 1906 2153 2168 2154 2078 2002 1896 1734 1718 1677 1566 1435 1283 1147 996 802 696 621 572 474 352 116 0 0 0 0 0 0 0 0 0 0 0 0 0 0 0 0 0 0 0 0
492 537 704 748 968 1093 1059 1191 1528 1678 1320 1173 1364 1713 1975 1904 1428 1270 1474 1600 1745 1848 1856 2058 2030 2005 1918 1849 1700 1674 1614 1529 1403 1271 1130 978 843 673 583 522 468 375 186 0 0 0 0 0 0 0 0 0 0 0 0 0 0 0 0 0 0 0 0
502 472 612 826 806 908 1114 1166 1254 1246 1360 1250 1308 1419 1554 1466 1197 1284 1426 1516 1569 1559 1736 1870 1925 1935 1884 1753 1666 1642 1572 1475 1346 1203 1086 967 870 728 530 486 466 441 290 48 0 0 0 0 0 0 0 0 0 0 0 0 0 0 0 0 0 0 0
506 564 698 796 849 964 1044 1059 1040 882 949 880 676 666 756 923 971 801 1012 1261 1367 1464 1466 1427 1586 1872 1728 1643 1610 1575 1506 1449 1310 1169 1064 980 897 773 560 458 475 470 342 245 102 0 0 0 0 0 0 0 0 0 0 0 0 0 0 0 0 0 0
422 454 523 607 669 703 794 892 949 927 830 866 890 895 785 647 586 521 530 826 1187 1340 1474 1531 1407 1559 1758 1671 1470 1515 1505 1446 1288 1163 1076 1010 909 799 638 470 462 398 363 311 223 14 0 0 0 0 0 0 0 0 0 0 0 0 0 0 0 0 0
593 651 692 662 639 631 645 694 779 888 974 1025 1000 942 872 854 796 672 750 994 1153 1342 1446 1438 1426 1514 1650 1686 1485 1418 1378 1320 1219 1110 1058 1004 912 814 701 500 405 354 384 351 286 110 0 0 0 0 0 0 0 0 0 0 0 0 0 0 0 0 0
476 494 511 530 552 574 600 605 666 786 918 936 930 911 922 942 892 926 977 960 1063 1201 1270 1246 1306 1524 1755 1749 1556 1467 1399 1300 1217 1155 1080 992 886 821 778 574 370 318 360 350 323 248 9 0 0 0 0 0 0 0 0 0 0 0 0 0 0 0 0
Wind_Speed
30 33 32 29 28 26 20 18 22 26 25 23 22 19 16 15 14 13 12 12 15 17 19 21 22 19 17 14 15 16 16 17 18 nan nan nan nan nan nan nan 16 18 23 nan nan nan nan nan nan nan nan nan nan nan nan nan nan nan nan nan nan nan nan
37 39 38 33 29 26 22 18 19 23 23 21 21 20 15 15 15 14 14 12 14 17 18 20 20 21 20 19 17 16 17 17 16 15 nan nan nan nan nan nan nan nan nan nan nan nan nan nan nan nan nan nan nan nan nan nan nan nan nan nan nan nan nan
41 41 39 34 30 27 22 18 16 19 19 17 19 19 15 15 15 15 15 14 14 17 18 20 21 22 21 20 20 19 18 18 15 16 18 nan nan nan nan nan nan nan nan nan nan nan nan nan nan nan nan nan nan nan nan nan nan nan nan nan nan nan nan
40 42 39 34 31 27 23 18 15 17 18 15 18 19 15 15 16 15 16 15 15 16 18 20 22 23 22 21 20 18 19 20 18 17 15 16 nan nan nan nan nan nan nan nan nan nan nan nan nan nan nan nan nan nan nan nan nan nan nan nan nan nan nan
39 40 37 33 30 27 24 19 15 17 17 15 16 19 16 16 16 16 17 18 17 17 18 19 21 22 23 21 20 19 18 18 18 18 18 19 19 18 18 nan nan nan nan nan nan nan nan nan nan nan nan nan nan nan nan nan nan nan nan nan nan nan nan
39 38 37 35 33 29 26 21 16 14 17 15 14 18 18 17 18 17 19 20 19 18 18 19 20 23 23 23 21 20 19 20 20 21 20 21 22 21 19 17 17 nan nan nan nan nan nan nan nan nan nan nan nan nan nan nan nan nan nan nan nan nan nan
40 39 37 36 35 31 27 21 15 14 15 15 16 18 20 20 18 18 20 21 20 19 18 18 20 22 24 23 22 21 21 20 20 22 21 21 21 21 19 18 17 nan nan nan nan nan nan nan nan nan nan nan nan nan nan nan nan nan nan nan nan nan nan
42 40 38 37 37 34 30 23 18 16 16 17 18 20 22 20 18 19 20 21 21 19 19 18 19 22 23 23 22 22 20 19 21 21 21 22 22 21 20 19 19 17 nan nan nan nan nan nan nan nan nan nan nan nan nan nan nan nan nan nan nan nan nan
42 42 42 40 38 36 32 27 21 19 20 21 23 22 22 21 20 19 20 20 21 20 19 19 20 21 23 24 22 22 22 19 20 22 21 21 22 22 21 19 19 19 19 nan nan nan nan nan nan nan nan nan nan nan nan nan nan nan nan nan nan nan nan
37 40 40 38 37 36 36 32 27 24 25 24 24 24 24 22 21 20 20 20 21 20 19 19 20 21 23 24 23 23 22 21 21 21 20 21 20 20 19 21 21 20 20 20 nan nan nan nan 24 24 nan nan nan nan nan nan nan nan nan nan nan nan nan
34 36 38 40 41 40 38 35 31 29 27 25 25 26 25 24 22 21 21 21 20 21 20 19 19 20 22 22 23 23 22 22 21 18 19 20 20 19 20 20 20 20 20 21 22 22 23 24 24 23 23 nan nan nan nan nan nan nan nan nan nan nan nan
32 33 36 39 43 41 38 35 30 27 29 30 28 27 26 25 23 21 22 21 21 21 21 20 18 18 21 21 22 22 22 22 21 20 19 20 19 20 20 21 20 20 21 22 22 22 22 24 24 24 23 22 nan nan nan nan nan nan nan nan nan nan nan
33 32 32 35 38 39 37 33 29 30 31 33 30 29 28 25 23 22 22 22 22 22 22 21 19 18 19 20 22 22 23 24 22 22 20 19 19 20 21 22 21 21 21 21 21 22 23 23 24 24 24 23 nan nan 20 19 nan nan nan nan nan nan nan
34 34 33 32 33 37 37 32 30 32 36 35 34 31 28 26 24 23 24 23 23 23 23 22 20 18 18 19 20 22 23 23 23 21 21 21 20 21 21 22 22 21 22 22 21 22 22 23 24 24 24 24 22 20 20 18 nan nan nan nan nan nan nan
37 36 34 31 30 34 36 32 31 35 37 37 35 31 29 28 26 24 24 24 24 23 23 22 21 19 17 19 20 20 21 22 22 21 22 22 22 21 21 22 21 22 23 23 22 22 22 22 24 24 24 25 22 21 19 19 nan nan nan nan nan nan nan
38 37 35 33 29 30 32 33 34 35 37 39 36 33 32 30 28 26 25 25 24 23 23 22 21 19 18 19 20 20 20 21 21 22 22 23 23 22 22 22 22 23 23 23 22 22 23 22 23 25 25 25 23 21 nan nan nan nan nan nan nan nan nan
38 38 36 33 30 29 30 32 35 35 37 40 37 35 34 33 32 28 26 26 25 24 24 22 21 19 18 18 20 21 20 20 20 20 22 23 24 24 24 23 22 24 24 24 23 22 22 22 23 25 25 25 24 nan nan nan nan nan nan nan nan nan nan
38 37 36 34 30 30 31 31 34 36 39 40 39 38 37 37 34 30 26 25 25 24 23 21 20 18 17 17 18 19 19 19 19 19 21 22 23 24 24 24 24 25 25 25 23 23 22 22 23 25 26 26 nan nan nan nan nan nan nan nan nan nan nan
35 35 35 34 30 30 32 31 32 35 39 40 41 40 39 38 35 30 27 26 26 24 23 20 18 17 16 16 16 17 17 17 17 18 20 21 23 24 24 25 25 26 26 26 25 24 23 23 23 25 27 26 nan nan nan nan nan nan nan nan nan nan nan
33 34 34 32 32 32 32 32 31 34 41 42 41 42 41 38 37 33 28 27 26 25 22 20 17 16 15 15 16 17 17 17 16 16 18 21 22 23 24 25 25 26 26 25 26 26 24 23 23 25 27 26 nan nan nan nan nan nan nan nan nan nan nan
37 36 36 35 35 36 36 35 33 37 44 43 40 40 40 37 37 36 32 29 28 27 24 20 16 15 15 15 16 17 17 17 16 15 17 19 21 23 25 25 26 27 27 26 nan nan nan nan nan nan nan nan nan nan nan nan nan nan nan nan nan nan nan
44 42 41 40 41 41 40 37 35 35 40 41 40 39 43 41 40 39 35 31 30 28 24 19 16 15 15 15 15 17 18 18 17 15 16 18 20 23 24 25 25 26 27 28 nan nan nan nan nan nan nan nan nan nan nan nan nan nan nan nan nan nan nan
47 46 46 45 44 43 41 39 36 34 38 42 42 43 46 45 42 41 38 33 32 30 24 20 15 15 17 17 17 17 18 18 18 16 17 18 19 22 24 24 25 29 30 30 nan nan nan nan nan nan nan nan nan nan nan nan nan nan nan nan nan nan nan
50 48 48 47 46 45 43 43 39 36 39 44 44 45 48 47 45 43 39 35 33 30 25 21 17 16 17 20 19 18 19 19 18 17 17 19 20 22 23 24 25 27 29 29 nan nan nan nan nan nan nan nan nan nan nan nan nan nan nan nan nan nan nan
50 50 50 49 49 50 49 46 42 38 38 41 44 49 49 49 48 46 43 38 34 29 24 20 20 17 18 20 21 20 20 20 20 19 18 19 19 22 24 25 25 25 26 nan nan nan nan nan nan nan nan nan nan nan nan nan nan nan nan nan nan nan nan
50 51 50 48 51 52 49 46 45 46 46 49 52 50 49 52 52 49 44 38 33 28 26 22 20 19 19 21 23 23 20 21 21 19 20 20 20 22 24 26 26 25 26 nan nan nan nan nan nan nan nan nan nan nan nan nan nan nan nan nan nan nan nan
50 50 50 48 48 48 46 43 44 45 47 52 54 55 57 60 59 52 44 39 34 30 26 25 21 19 20 22 24 24 21 22 21 20 21 22 21 22 24 27 28 27 26 nan nan nan nan nan nan nan nan nan nan nan nan nan nan nan nan nan nan nan nan
57 51 49 50 48 46 44 45 48 49 49 50 50 48 48 56 59 54 48 42 38 32 27 24 23 19 21 25 25 25 23 22 21 21 21 22 23 23 24 26 28 30 29 nan nan nan nan nan nan nan nan nan nan nan nan nan nan nan nan nan nan nan nan
56 62 65 59 51 47 49 54 54 56 54 53 53 49 48 58 63 58 53 48 41 32 28 25 23 19 22 26 28 25 23 23 23 22 22 22 23 23 25 27 28 30 30 nan nan nan nan nan nan nan nan nan nan nan nan nan nan nan nan nan nan nan nan
53 56 59 62 62 62 60 59 60 60 56 53 54 49 44 50 57 54 48 44 37 31 29 29 23 20 22 26 30 25 24 24 23 23 22 23 24 24 25 26 29 30 nan nan nan nan nan nan nan nan nan nan nan nan nan nan nan nan nan nan nan nan nan
nan nan nan 53 52 47 49 50 50 50 49 50 51 46 41 45 51 50 48 47 41 34 31 31 25 23 23 27 28 26 25 25 24 23 23 24 25 25 25 30 30 31 32 nan nan nan nan nan nan nan nan nan nan nan nan nan nan nan nan nan nan nan nan
56 56 55 52 49 45 47 50 50 48 46 47 49 49 44 45 48 49 47 45 40 35 33 32 26 23 24 26 26 25 26 25 25 24 25 25 25 25 24 27 32 33 33 nan nan nan nan nan nan nan nan nan nan nan nan nan nan nan nan nan nan nan nan
58 57 55 51 46 43 47 53 56 53 49 47 48 48 46 44 44 46 45 43 43 38 31 31 27 22 23 24 24 25 27 26 24 25 27 27 27 23 24 26 28 33 37 nan nan nan nan nan nan nan nan nan nan nan nan nan nan nan nan nan nan nan nan
54 53 53 51 49 46 45 45 49 50 48 46 45 48 48 46 44 44 46 45 45 40 33 29 29 25 23 23 23 23 26 24 25 28 28 27 26 26 25 26 28 31 36 40 42 nan nan nan nan nan nan nan nan nan nan nan nan nan nan nan nan nan nan
52 51 52 54 52 49 47 46 46 46 47 46 44 44 43 41 39 40 42 43 43 39 30 24 32 27 23 22 23 22 23 23 27 29 29 26 26 25 27 28 29 33 36 39 41 nan nan nan nan nan nan nan nan nan nan nan nan nan nan nan nan nan nan
53 53 52 52 51 48 49 48 46 46 46 46 44 40 38 35 32 32 38 43 43 40 33 29 28 28 23 23 22 20 21 24 30 30 29 27 26 26 28 29 30 36 38 38 40 41 nan nan nan nan nan nan nan nan nan nan nan nan nan nan nan nan nan
50 49 48 49 48 47 49 48 47 47 46 45 43 40 40 37 31 26 32 39 44 43 35 28 25 24 24 23 23 21 20 24 32 29 28 26 27 28 30 30 33 38 39 39 40 40 nan nan nan nan nan nan nan nan nan nan nan nan nan nan nan nan nan
Wind_Direction
241 244 245 242 242 247 252 257 253 251 255 247 233 232 249 262 277 292 304 320 335 344 347 351 349 344 338 337 339 334 324 329 334 nan nan nan nan nan nan nan 307 312 322 nan nan nan nan nan nan nan nan nan nan nan nan nan nan nan nan nan nan nan nan
237 241 244 244 246 251 255 255 261 260 264 257 236 230 245 263 273 285 295 310 329 341 346 348 346 340 340 338 338 333 332 335 340 335 nan nan nan nan nan nan nan nan nan nan nan nan nan nan nan nan nan nan nan nan nan nan nan nan nan nan nan nan nan
237 240 244 246 246 251 258 262 270 271 273 265 236 229 246 263 269 276 290 307 324 337 342 345 342 340 339 341 343 342 336 337 340 339 342 nan nan nan nan nan nan nan nan nan nan nan nan nan nan nan nan nan nan nan nan nan nan nan nan nan nan nan nan
242 244 245 246 246 251 259 266 276 278 279 269 232 222 242 261 265 272 284 299 314 328 337 340 343 342 340 340 341 341 340 341 343 343 339 335 nan nan nan nan nan nan nan nan nan nan nan nan nan nan nan nan nan nan nan nan nan nan nan nan nan nan nan
247 246 250 250 251 255 258 263 264 270 281 272 237 224 235 254 261 267 276 291 308 320 333 338 340 341 338 337 338 342 343 345 342 342 340 337 338 333 332 nan nan nan nan nan nan nan nan nan nan nan nan nan nan nan nan nan nan nan nan nan nan nan nan
248 248 248 248 248 251 255 261 264 270 274 275 252 240 241 254 258 267 274 286 302 315 323 330 337 338 335 337 339 344 346 347 348 345 342 344 339 335 335 331 331 nan nan nan nan nan nan nan nan nan nan nan nan nan nan nan nan nan nan nan nan nan nan
247 245 246 249 249 248 251 259 265 262 265 271 261 253 251 254 259 270 273 280 294 307 314 324 331 334 334 337 339 346 351 351 346 348 348 342 338 338 329 330 334 nan nan nan nan nan nan nan nan nan nan nan nan nan nan nan nan nan nan nan nan nan nan
241 240 242 246 249 251 249 254 256 252 254 257 259 256 257 261 266 270 278 282 291 302 307 313 321 328 332 334 339 346 349 347 349 347 347 343 340 336 332 332 333 332 nan nan nan nan nan nan nan nan nan nan nan nan nan nan nan nan nan nan nan nan nan
239 241 240 242 246 252 252 253 258 254 246 248 251 258 262 265 267 274 281 286 288 295 302 307 313 322 329 333 336 340 347 345 348 350 348 344 344 339 335 329 326 335 330 nan nan nan nan nan nan nan nan nan nan nan nan nan nan nan nan nan nan nan nan
244 245 245 248 251 253 252 251 255 254 247 244 248 255 262 265 267 273 280 283 285 290 295 303 310 318 326 332 335 338 343 345 348 352 346 344 343 336 330 331 332 329 329 326 nan nan nan nan 324 323 nan nan nan nan nan nan nan nan nan nan nan nan nan
247 245 243 244 245 246 248 250 252 252 252 250 250 251 259 266 266 272 275 278 280 284 292 298 307 317 323 330 334 337 339 339 346 345 345 344 341 333 332 329 327 328 325 324 330 329 328 329 327 326 325 nan nan nan nan nan nan nan nan nan nan nan nan
245 241 239 240 242 243 246 249 254 256 254 253 252 254 259 263 265 268 272 274 276 282 286 294 302 312 323 328 331 332 332 336 342 345 342 339 338 333 332 332 328 331 325 328 328 328 329 329 330 326 326 319 nan nan nan nan nan nan nan nan nan nan nan
240 239 237 238 240 243 245 248 253 255 259 257 253 253 255 259 264 268 267 271 276 279 284 289 296 308 320 329 330 328 329 333 338 342 339 336 332 334 333 334 331 331 326 325 329 331 333 332 330 328 325 322 nan nan 310 307 nan nan nan nan nan nan nan
238 238 237 237 237 239 240 244 250 254 255 255 252 253 256 258 262 264 266 267 273 276 283 287 289 299 316 328 329 328 326 332 336 336 334 336 333 332 335 335 332 330 322 327 331 331 333 333 330 330 325 322 320 314 311 312 nan nan nan nan nan nan nan
233 234 237 240 238 235 235 242 249 250 254 254 251 252 255 253 255 259 261 264 267 273 280 286 288 295 312 324 328 323 325 330 334 334 332 335 335 331 331 333 332 328 324 330 328 330 331 332 331 331 330 326 324 320 318 313 nan nan nan nan nan nan nan
229 232 236 237 235 231 233 242 247 249 251 251 248 249 252 252 252 254 254 257 262 269 277 283 286 295 310 321 326 326 323 326 332 333 334 336 335 330 329 331 332 327 323 330 332 332 328 332 331 332 333 328 327 325 nan nan nan nan nan nan nan nan nan
227 229 233 235 233 231 234 242 247 247 248 245 245 246 251 250 247 248 249 251 258 265 272 279 285 293 308 318 322 326 323 324 328 333 335 333 333 333 334 331 331 328 329 335 336 333 331 330 332 332 332 329 328 nan nan nan nan nan nan nan nan nan nan
228 229 230 231 231 233 235 241 246 247 242 240 241 244 246 246 245 245 244 248 255 261 269 276 283 291 301 309 319 321 321 322 325 330 333 333 332 335 333 335 331 325 327 334 332 332 330 332 333 331 332 329 nan nan nan nan nan nan nan nan nan nan nan
226 228 229 228 228 232 236 240 246 242 237 236 240 244 245 243 244 245 241 243 249 255 262 271 281 291 301 307 313 317 317 320 322 326 329 330 332 332 332 332 329 325 326 331 332 330 329 333 329 328 329 329 nan nan nan nan nan nan nan nan nan nan nan
224 226 227 225 223 228 234 238 241 238 232 232 239 242 243 243 244 244 241 241 248 253 258 265 274 286 299 308 315 316 317 318 319 322 326 329 330 330 329 329 328 327 329 331 329 330 330 329 329 329 328 328 nan nan nan nan nan nan nan nan nan nan nan
227 227 227 225 223 225 230 234 235 232 229 230 235 242 245 245 245 245 243 240 244 249 253 259 270 286 297 309 314 316 316 317 320 321 321 325 328 329 328 329 330 329 330 330 nan nan nan nan nan nan nan nan nan nan nan nan nan nan nan nan nan nan nan
228 228 228 227 225 225 229 232 235 232 228 227 229 235 242 242 241 245 244 240 243 247 250 257 265 283 296 306 312 317 317 319 321 322 318 322 326 329 328 328 328 328 330 333 nan nan nan nan nan nan nan nan nan nan nan nan nan nan nan nan nan nan nan
227 229 230 229 226 226 228 231 234 232 226 224 224 227 235 239 239 243 243 240 241 243 246 250 266 300 303 300 307 310 311 316 320 321 318 318 323 328 330 327 327 334 335 336 nan nan nan nan nan nan nan nan nan nan nan nan nan nan nan nan nan nan nan
225 228 231 231 228 227 228 230 233 232 227 225 226 228 234 236 236 239 242 240 241 240 241 246 273 287 303 309 304 307 311 314 318 322 320 320 323 325 325 326 323 328 331 333 nan nan nan nan nan nan nan nan nan nan nan nan nan nan nan nan nan nan nan
222 228 230 230 231 232 233 232 235 236 234 234 234 234 236 237 234 234 236 237 238 239 239 248 269 283 297 305 305 303 305 309 314 322 324 323 319 318 321 323 323 320 324 nan nan nan nan nan nan nan nan nan nan nan nan nan nan nan nan nan nan nan nan
224 227 231 233 234 236 237 235 234 233 233 233 233 234 239 241 236 231 233 236 236 234 233 247 264 281 293 300 306 305 300 307 311 321 326 324 318 317 317 320 322 321 322 nan nan nan nan nan nan nan nan nan nan nan nan nan nan nan nan nan nan nan nan
221 227 233 234 236 239 239 237 236 234 234 235 240 240 236 234 233 233 231 232 233 228 226 239 260 276 288 295 301 303 296 304 310 318 325 324 318 317 318 319 320 320 317 nan nan nan nan nan nan nan nan nan nan nan nan nan nan nan nan nan nan nan nan
213 219 228 234 235 237 239 236 235 233 235 237 242 251 253 244 238 234 228 226 229 226 218 236 254 270 283 289 296 299 294 297 303 310 318 321 321 317 316 317 319 320 318 nan nan nan nan nan nan nan nan nan nan nan nan nan nan nan nan nan nan nan nan
221 218 219 221 228 235 235 233 233 231 233 234 238 245 247 242 239 237 231 225 225 219 213 235 252 265 278 283 289 288 291 297 302 306 313 317 318 316 314 314 314 316 318 nan nan nan nan nan nan nan nan nan nan nan nan nan nan nan nan nan nan nan nan
222 224 223 225 221 224 227 230 231 229 233 239 241 241 242 241 242 244 241 236 231 220 212 230 248 259 271 282 279 283 288 292 297 303 309 313 315 314 312 313 313 314 nan nan nan nan nan nan nan nan nan nan nan nan nan nan nan nan nan nan nan nan nan
nan nan nan 232 229 223 233 238 240 239 236 237 242 245 240 234 235 239 241 239 234 223 216 231 247 253 266 276 282 281 283 288 293 299 302 305 308 311 315 321 317 314 315 nan nan nan nan nan nan nan nan nan nan nan nan nan nan nan nan nan nan nan nan
228 233 236 233 231 230 228 232 240 244 243 244 245 243 238 232 228 229 235 240 238 228 221 234 251 256 265 275 279 275 280 284 290 295 297 301 303 308 311 318 324 316 316 nan nan nan nan nan nan nan nan nan nan nan nan nan nan nan nan nan nan nan nan
228 232 234 234 234 234 233 233 237 241 243 246 249 249 247 242 234 228 230 233 230 226 226 234 245 258 265 274 287 277 274 282 290 295 295 299 303 305 310 311 316 320 318 nan nan nan nan nan nan nan nan nan nan nan nan nan nan nan nan nan nan nan nan
227 230 233 236 238 238 237 239 243 244 246 247 248 249 252 252 245 235 229 225 221 219 222 233 244 263 266 275 286 287 274 285 288 290 293 296 302 310 310 309 305 312 316 314 315 nan nan nan nan nan nan nan nan nan nan nan nan nan nan nan nan nan nan
228 229 231 236 238 237 236 239 241 244 245 247 248 247 247 252 257 250 237 228 221 216 219 239 243 258 272 277 285 298 279 284 287 286 291 296 302 307 309 305 303 308 315 313 315 nan nan nan nan nan nan nan nan nan nan nan nan nan nan nan nan nan nan
231 230 232 235 239 240 240 241 242 243 246 248 250 249 246 249 255 247 234 229 225 221 226 240 257 253 269 279 288 295 300 287 290 288 293 301 305 306 301 300 300 305 311 311 312 314 nan nan nan nan nan nan nan nan nan nan nan nan nan nan nan nan nan
234 233 234 235 238 241 241 242 244 245 247 249 250 250 242 243 253 249 231 226 224 221 228 244 248 259 267 282 283 297 298 293 291 289 292 297 298 299 299 297 295 302 307 308 310 309 nan nan nan nan nan nan nan nan nan nan nan nan nan nan nan nan nan